Location: Asheville, NC
(35.6000°N, 82.5500°W)
Time: 17:04:30
(UTC-05:00)

Vanguard 3 - Pass Details

Date: 12 February 2018
Orbit: 508 x 3264 km, 33.3° (Epoch: 17 February)

Event Time Altitude Azimuth Distance (km) Brightness Sun altitude
Rises 02:07:47 0° 265° (W) 4,645 - -61.2°
Reaches altitude 10° 02:12:04 10° 246° (WSW) 4,143 - -60.5°
Maximum altitude 02:18:43 17° 211° (SSW) 4,245 - -59.5°
Drops below altitude 10° 02:27:16 10° 177° (S) 5,501 - -58.2°
Exits shadow 02:32:39 - 165° (SSE) 6,529 11.6 -57.3°
Sets 02:34:44 0° 161° (SSE) 6,937 11.8 -56.9°
